Probability
0 0 0 1 0 0 0 0 0 0 0 0 2 3 3 1 1 2 3 3 3 3 2 2 3 3 2 2 2 1 0 0 2 4 5 4 3 3 3 2 1 2 2 2
0 0 1 1 1 0 0 0 0 0 0 1 3 4 3 1 2 3 4 4 3 2 2 2 3 3 1 1 1 0 0 0 1 4 4 4 3 3 3 3 2 1 1 1
0 0 1 1 1 0 0 0 0 0 0 1 3 4 3 2 2 4 4 4 3 2 3 3 3 2 1 0 0 0 0 0 0 2 3 3 3 3 3 3 3 1 1 2
0 0 1 1 0 0 0 0 0 0 0 1 2 3 3 2 2 3 4 4 3 3 4 3 2 1 0 0 0 0 0 0 0 0 1 1 2 3 3 3 3 3 3 3
0 0 0 0 0 0 0 0 0 0 0 0 1 2 2 1 1 1 2 2 2 3 3 2 0 0 0 0 0 0 0 0 0 0 0 0 1 2 3 3 3 3 3 3
0 0 0 0 0 0 0 0 0 1 2 2 2 3 3 2 1 1 1 1 1 1 1 0 0 0 0 0 0 0 0 0 0 0 0 0 0 1 1 2 3 3 3 3
0 0 0 0 0 0 0 0 0 1 2 3 4 5 5 4 3 2 2 2 1 0 0 0 0 0 0 0 0 0 0 0 0 0 0 0 0 0 0 1 1 2 2 2
1 0 0 0 0 0 0 0 0 0 1 2 5 5 4 4 3 3 3 2 1 1 1 1 0 0 0 0 0 0 0 0 0 0 0 0 0 0 0 1 1 0 0 1
1 0 0 0 0 0 1 0 0 0 0 1 2 3 2 2 2 2 2 1 0 1 2 1 0 0 0 0 0 0 0 0 0 0 0 0 0 0 0 0 0 0 0 0
1 0 0 0 0 0 0 0 0 0 0 0 1 1 0 1 1 1 1 0 0 1 2 2 1 0 0 0 0 0 0 0 0 0 0 0 0 0 0 0 0 0 0 0
0 0 0 0 0 0 0 0 0 0 0 0 0 0 0 0 0 0 0 0 0 1 2 2 1 0 0 0 0 0 0 0 0 0 0 0 0 0 0 0 0 0 0 0
0 0 0 0 0 0 0 0 0 0 0 0 0 0 0 0 0 0 0 0 0 0 1 2 2 1 0 0 0 0 0 0 0 0 0 0 0 0 0 0 0 0 0 0
0 0 0 0 0 0 0 0 0 0 0 0 0 0 0 0 0 0 0 0 0 0 1 2 2 1 0 0 0 0 0 0 0 0 0 0 0 0 0 0 0 0 0 0
0 0 0 0 0 0 0 0 0 0 0 0 0 0 0 0 0 0 0 0 0 0 0 1 2 2 0 0 0 0 0 0 0 0 0 0 0 0 0 0 0 0 0 0
0 0 0 0 0 0 0 0 0 0 0 0 0 0 0 0 0 1 1 1 0 0 0 1 1 1 0 0 0 0 0 0 0 0 0 0 0 0 0 0 0 0 0 0
0 0 0 0 0 0 0 0 0 0 0 0 0 0 0 0 0 1 2 2 1 0 0 0 1 1 0 0 0 0 0 0 0 0 0 0 0 0 0 0 0 0 0 0
0 0 0 0 0 0 0 0 0 0 0 0 0 0 0 0 0 0 1 1 1 0 0 0 1 2 1 0 0 0 0 0 0 0 0 0 0 0 0 0 0 0 0 0
0 0 0 0 0 0 0 0 0 0 0 0 0 0 0 0 0 0 0 0 0 0 0 0 1 1 1 0 0 0 0 0 0 0 0 0 0 0 0 0 0 0 0 0
0 0 0 0 0 0 0 0 0 0 0 0 0 0 0 0 0 0 0 0 0 0 0 0 0 0 0 0 0 0 0 0 0 0 0 0 0 0 0 0 0 0 0 0
0 0 0 0 0 0 0 0 0 0 0 0 0 0 0 0 0 0 0 0 0 0 0 0 0 0 0 0 0 0 0 0 0 0 0 0 0 0 0 0 0 0 0 0
0 0 0 0 0 0 0 0 0 0 0 0 0 0 0 0 0 0 0 0 0 0 0 0 0 0 0 0 0 0 0 0 0 0 0 0 0 0 0 0 0 0 0 0
0 0 0 0 0 0 0 0 0 0 0 0 0 0 0 0 0 0 0 0 0 0 0 0 0 0 0 0 0 0 0 0 0 0 0 0 0 0 0 0 0 0 0 0
0 0 0 0 0 0 0 0 0 0 0 0 0 0 0 0 0 0 0 0 0 0 0 0 0 0 0 0 0 0 0 0 0 0 0 0 0 0 0 0 0 0 0 0
0 0 0 0 0 0 0 0 0 0 0 0 0 0 0 0 0 0 0 0 0 0 0 0 0 0 0 0 0 0 0 0 0 0 0 0 0 0 0 0 0 0 0 0
0 0 0 0 0 0 0 0 0 0 0 0 0 0 0 0 0 0 0 0 0 0 0 0 0 0 0 0 0 0 0 0 0 0 0 0 0 0 0 0 0 0 0 0
0 0 0 0 0 0 0 0 0 0 0 0 0 0 0 0 0 0 0 0 0 0 0 0 0 0 0 0 0 0 0 0 0 0 0 0 0 0 0 0 0 0 0 0
0 0 0 0 0 0 0 0 0 0 0 0 0 0 0 0 0 0 0 0 0 0 0 0 0 0 0 0 0 0 0 0 0 0 0 0 0 0 0 0 0 0 0 0
Wind_Speed
9 9 9 10 10 9 10 11 11 11 9 7 6 5 4 3 2 2 3 4 4 3 3 3 3 3 1 2 2 2 2 2 2 1 1 1 2 2 2 2 3 3 3 3
9 8 8 9 9 8 7 8 9 9 7 6 6 4 3 3 2 3 3 4 4 4 4 3 3 3 2 2 2 3 3 3 2 2 2 2 1 1 2 2 3 3 3 3
7 6 10 7 3 4 5 6 6 7 6 6 7 6 5 3 3 3 3 3 4 4 4 3 3 3 3 2 3 3 3 3 2 2 2 2 2 1 1 2 2 3 4 4
7 8 7 3 4 4 5 4 4 4 5 7 7 6 4 3 3 4 3 3 4 4 4 3 3 3 3 3 3 3 3 3 2 2 2 2 2 2 2 2 2 3 4 4
6 7 7 3 2 5 7 7 3 5 8 8 7 6 2 2 3 3 3 3 3 4 4 3 4 3 4 3 3 3 3 3 2 2 2 2 2 2 2 2 3 4 4 4
7 8 6 3 6 6 7 6 5 8 9 9 8 7 4 4 4 3 2 1 2 3 4 3 4 4 4 4 3 3 3 3 2 2 2 2 2 2 2 3 3 4 4 4
9 8 6 5 6 6 6 5 9 10 9 8 8 8 6 5 4 2 2 1 1 2 3 3 4 4 4 3 3 2 2 2 2 2 2 2 2 2 2 3 3 4 4 4
6 7 3 7 6 6 8 9 9 9 8 8 8 7 5 4 3 2 2 1 2 2 2 3 4 4 4 3 3 2 2 2 2 2 2 1 1 2 2 3 3 3 3 3
5 5 5 7 8 8 9 9 9 8 8 7 7 6 5 4 3 3 2 2 2 3 3 3 5 5 4 3 3 3 2 2 1 1 1 1 1 1 2 2 3 3 3 3
8 7 8 9 9 9 10 10 10 8 7 7 7 6 4 3 3 3 3 2 3 3 3 4 5 5 4 3 3 3 3 2 2 2 2 1 2 2 2 2 3 3 4 4
11 11 10 8 9 11 11 10 9 8 7 6 5 5 4 3 3 3 3 3 3 4 3 4 5 5 4 4 4 3 3 2 2 2 2 1 2 2 2 2 3 4 4 5
9 9 10 12 12 12 12 11 9 8 7 6 5 4 4 3 3 3 3 3 3 4 4 4 5 5 4 4 4 4 3 3 2 2 1 2 1 1 1 2 2 3 4 5
11 12 13 14 13 12 11 10 9 8 7 6 4 4 4 3 3 3 3 3 3 3 3 4 4 4 4 5 4 4 3 2 2 2 2 2 1 2 1 1 4 5 5 4
10 11 12 12 11 11 10 9 7 6 5 4 3 4 4 3 3 3 3 3 3 3 4 4 4 4 4 5 5 4 3 3 3 3 2 2 2 2 2 2 2 0 3 5
11 11 12 11 10 9 7 6 5 5 4 4 3 4 4 3 3 3 3 3 4 4 4 5 4 4 4 4 4 4 4 3 3 2 2 2 2 2 2 3 3 3 2 1
12 11 10 10 10 9 7 6 6 5 4 4 4 4 3 3 3 3 3 4 4 4 4 4 4 4 5 5 5 5 4 3 3 3 2 1 2 2 2 3 3 3 3 4
11 11 10 10 10 9 8 7 7 6 5 5 5 4 4 4 4 4 4 4 4 4 4 4 4 4 5 5 5 4 4 4 5 3 2 1 2 2 3 3 3 3 3 4
11 11 11 11 10 9 9 8 7 6 6 5 5 4 5 5 5 5 5 5 5 4 4 4 4 4 5 5 5 4 3 3 3 2 1 1 2 2 2 3 3 4 3 2
11 11 11 10 10 9 9 8 7 6 6 6 5 5 6 6 6 5 5 6 6 5 4 4 4 5 5 5 4 4 3 3 2 2 1 1 2 2 1 2 2 3 4 4
11 11 10 9 9 8 7 7 6 6 6 6 6 6 6 6 6 6 6 6 5 4 4 4 5 5 5 5 5 4 3 3 2 2 1 2 1 2 2 2 2 3 3 4
11 10 9 8 7 7 6 6 6 6 6 6 6 7 6 6 6 7 7 6 5 5 5 6 6 5 5 4 6 4 4 3 2 2 2 1 1 1 2 2 2 3 3 3
10 10 9 7 6 5 5 4 5 6 6 6 7 7 6 7 7 7 7 4 5 5 6 6 6 4 4 4 5 4 4 3 2 2 1 1 1 1 1 2 2 2 3 3
10 9 8 7 6 5 5 5 5 5 6 7 7 7 7 6 6 6 6 5 6 7 6 5 4 7 5 6 5 5 4 3 3 2 2 1 1 1 1 1 2 2 3 3
10 8 7 6 5 5 5 4 4 4 5 6 6 7 7 6 6 6 4 6 6 6 5 5 7 8 7 6 5 5 4 3 3 3 2 2 1 1 0 1 1 2 3 4
9 8 6 5 5 4 4 3 3 4 5 5 6 7 7 6 6 5 5 7 8 8 6 8 9 9 8 7 6 5 4 3 2 2 1 1 1 0 1 1 1 2 2 3
8 6 5 6 5 4 3 4 3 4 4 4 5 5 5 5 6 6 6 7 9 7 6 7 9 9 8 7 6 5 4 4 4 3 2 1 1 0 1 1 2 2 2 3
7 5 4 4 4 4 4 3 4 4 5 5 5 5 6 6 6 7 8 7 8 8 7 6 7 8 7 6 5 5 4 4 3 3 3 2 1 1 1 1 1 2 2 2
Wind_Direction
284 293 289 288 289 286 278 281 284 295 304 326 337 330 325 323 293 245 219 207 204 199 186 178 167 158 174 189 183 194 210 201 199 223 262 265 278 283 286 296 304 310 307 310
277 277 286 284 282 282 282 285 286 291 302 344 345 334 321 316 295 267 242 222 214 202 199 190 185 183 189 207 196 205 220 215 219 242 255 267 272 271 284 303 308 308 302 301
283 298 284 264 285 299 303 302 299 306 331 348 338 331 317 307 297 296 275 233 221 209 198 194 205 202 204 216 219 218 223 220 222 238 250 261 272 268 279 290 295 299 299 302
282 288 279 20 25 333 310 307 326 335 340 332 330 321 301 292 300 302 289 239 224 210 200 195 199 200 208 219 224 223 222 223 225 240 246 255 262 276 282 283 291 295 297 302
284 286 282 276 353 329 306 293 348 343 336 332 331 307 269 8 333 306 289 249 220 203 197 199 193 201 209 221 226 223 214 223 230 242 252 255 256 269 273 278 284 285 289 296
279 287 288 16 26 342 294 266 28 348 335 330 321 305 332 345 316 311 307 243 205 188 185 190 189 203 212 222 222 216 214 224 231 241 254 255 254 261 266 271 274 284 298 299
271 272 278 20 3 316 287 342 347 331 323 315 311 322 329 312 305 309 300 254 180 177 184 186 189 202 216 225 218 220 215 220 227 242 253 256 254 260 264 270 282 293 303 301
273 267 296 23 338 331 332 327 319 317 313 309 316 325 318 305 302 296 281 228 175 185 193 188 189 198 219 227 211 211 209 208 220 246 258 237 238 244 258 274 278 281 292 302
291 298 339 326 318 320 315 308 310 312 314 312 309 311 306 302 293 285 271 224 199 196 196 192 190 197 217 214 204 205 198 192 213 219 219 230 244 247 253 262 287 306 317 325
276 277 298 305 311 317 315 310 308 307 306 300 295 296 294 289 279 271 259 219 217 207 195 190 191 200 210 198 201 203 193 191 198 194 198 195 257 268 297 315 322 325 329 332
268 282 294 296 311 317 316 309 304 297 291 289 283 277 274 273 265 259 243 223 220 216 205 195 192 198 196 190 202 199 192 194 199 195 190 230 252 298 307 341 346 315 327 330
280 297 298 301 307 308 309 305 299 291 289 284 278 270 266 259 255 255 242 229 221 217 207 197 195 197 192 194 199 197 196 203 209 202 194 235 246 230 172 241 210 232 256 287
283 293 295 295 296 301 302 300 294 286 283 282 283 269 255 242 237 236 237 230 218 214 202 195 201 199 192 192 190 194 205 207 221 222 224 245 265 286 300 204 207 222 226 239
284 288 288 291 295 300 299 295 290 287 287 283 272 254 241 232 224 226 230 228 218 207 193 192 197 192 185 184 190 197 209 196 221 229 248 261 279 293 308 321 324 304 193 203
288 290 289 291 291 293 289 284 279 277 283 279 257 243 235 227 222 226 228 217 210 204 189 187 190 184 183 186 189 199 214 207 217 240 254 273 290 299 314 324 328 341 354 159
291 291 291 288 287 286 280 273 270 268 265 265 256 245 235 229 222 219 220 208 200 196 182 186 192 185 184 188 195 199 201 190 226 243 243 266 288 306 321 330 336 351 349 1
291 292 292 288 285 281 275 269 264 258 250 246 246 238 227 221 214 212 208 199 193 186 184 195 196 190 188 191 201 201 191 170 192 226 238 287 304 313 326 331 339 345 354 35
289 287 285 282 280 277 274 270 260 249 241 238 233 224 217 217 218 214 203 189 188 187 192 199 195 199 194 195 202 209 191 184 192 220 232 275 297 297 315 330 346 346 344 44
301 296 289 282 276 271 267 263 253 240 230 222 218 218 222 222 219 207 193 190 195 194 191 187 183 204 198 193 209 205 194 186 186 205 241 207 253 280 319 344 347 342 346 357
306 302 293 284 278 269 262 255 242 231 224 218 216 216 220 219 211 201 193 198 202 192 173 182 194 200 198 189 221 207 185 188 194 203 232 253 271 300 324 349 353 347 352 357
310 305 296 289 282 272 264 253 231 224 222 218 216 214 214 212 205 198 198 198 190 193 190 186 204 198 194 182 206 207 186 189 196 206 233 254 275 308 338 349 350 348 358 0
311 305 297 290 284 275 262 247 229 223 221 220 219 212 205 201 197 196 204 204 180 179 199 199 200 176 172 194 202 204 191 184 202 213 233 251 274 313 332 340 354 6 14 8
307 302 293 284 276 268 256 243 228 223 219 216 213 208 205 202 195 194 192 188 184 181 207 200 156 142 172 211 208 206 199 196 207 218 229 242 269 287 302 351 19 19 16 7
305 301 292 282 270 255 247 246 237 228 218 215 210 205 201 197 196 201 185 162 167 179 202 152 148 164 202 218 212 209 200 197 212 226 229 239 256 265 16 35 26 22 24 14
302 298 289 278 261 248 236 233 226 218 214 208 202 197 200 200 195 185 175 167 165 185 185 164 172 185 209 217 208 207 204 205 229 244 232 251 268 322 73 49 41 35 31 24
296 287 278 268 265 253 231 220 214 206 209 205 202 195 190 188 187 179 176 177 179 192 194 174 178 191 210 210 200 200 202 191 197 215 212 208 197 178 95 67 61 45 45 44
285 281 268 260 255 246 238 227 218 207 207 208 201 194 189 186 183 181 181 181 178 186 192 187 186 194 201 199 194 196 205 205 205 201 186 181 176 166 130 127 96 78 67 65